WATER LEVELS

Elbe

Guaranteed water level and forecast    Ústí nad Labem-Střekov

Guaranteed water level
255 cm
on 08.02.2023 more information
Forecast
245 cm
on 09.02.2023 07:00
Tendency
Slowly decreasing
on 09.02.2023 tendency methodology
Assumption
230 cm
on 10.02.2023 07:00
(Source data ČHMÚ a Povodí Labe)

Ústí nad Labem

Date and time (UTC) H (cm) Q (m³/s)
8. 2. 2023 17:10 257 315
8. 2. 2023 17:00 257 315
8. 2. 2023 16:00 256 313
8. 2. 2023 15:00 256 313
8. 2. 2023 14:00 257 315
8. 2. 2023 13:00 260 322
8. 2. 2023 12:00 262 327
8. 2. 2023 11:00 265 334
8. 2. 2023 10:00 262 327
8. 2. 2023 09:00 262 327
8. 2. 2023 08:00 261 325
8. 2. 2023 07:00 262 327
8. 2. 2023 06:00 263 329
8. 2. 2023 05:00 262 327

H - water level, Q - discharge
more information

Mělník

Date and time (UTC) H (cm) Q (m³/s)
8. 2. 2023 17:10 287 -
8. 2. 2023 17:00 287 -
8. 2. 2023 16:00 284 -
8. 2. 2023 15:00 281 -
8. 2. 2023 14:00 282 -
8. 2. 2023 13:00 284 -
8. 2. 2023 12:00 285 -
8. 2. 2023 11:00 286 -
8. 2. 2023 10:00 289 -
8. 2. 2023 09:00 284 -
8. 2. 2023 08:00 287 -
8. 2. 2023 07:00 287 280
8. 2. 2023 06:00 287 -
8. 2. 2023 05:00 287 -

H - water level, Q - discharge
more information

Kostelec nad Labem

Date and time (UTC) H (cm) Q (m³/s)
8. 2. 2023 17:15 - 80.8
8. 2. 2023 17:00 413 83
8. 2. 2023 16:00 413 81
8. 2. 2023 15:00 413 82
8. 2. 2023 14:00 413 84
8. 2. 2023 13:00 414 83
8. 2. 2023 12:00 413 83
8. 2. 2023 11:00 414 83
8. 2. 2023 10:00 414 84
8. 2. 2023 09:00 415 83
8. 2. 2023 08:00 416 92
8. 2. 2023 07:00 415 93
8. 2. 2023 06:00 415 92
8. 2. 2023 05:00 415 92

H - water level, Q - discharge
more information

Přelouč

Date and time (UTC) H (cm) Q (m³/s)
8. 2. 2023 17:10 96 57.8
8. 2. 2023 17:00 97 59
8. 2. 2023 16:00 95 57
8. 2. 2023 15:00 93 55
8. 2. 2023 14:00 93 55
8. 2. 2023 13:00 97 59
8. 2. 2023 12:00 101 63
8. 2. 2023 11:00 100 62
8. 2. 2023 10:00 99 61
8. 2. 2023 09:00 99 61
8. 2. 2023 08:00 99 61
8. 2. 2023 07:00 100 62
8. 2. 2023 06:00 100 62
8. 2. 2023 05:00 100 62

H - water level, Q - discharge
more information


Vltava

Praha-Chuchle

Date and time (UTC) H (cm) Q (m³/s)
8. 2. 2023 17:10 79 181
8. 2. 2023 17:00 79 181
8. 2. 2023 16:00 78 176
8. 2. 2023 15:00 79 181
8. 2. 2023 14:00 79 181
8. 2. 2023 13:00 79 181
8. 2. 2023 12:00 79 181
8. 2. 2023 11:00 79 181
8. 2. 2023 10:00 79 181
8. 2. 2023 09:00 78 176
8. 2. 2023 08:00 76 167
8. 2. 2023 07:00 78 176
8. 2. 2023 06:00 79 181
8. 2. 2023 05:00 79 181

H - water level, Q - discharge
more information

VD Orlík

Date and time (UTC) H (m n. m.) Q (m³/s)
8. 2. 2023 17:20 337.74 103.3
8. 2. 2023 17:00 337.75 102
8. 2. 2023 16:00 337.75 97
8. 2. 2023 15:00 337.74 84
8. 2. 2023 14:00 337.73 0
8. 2. 2023 13:00 337.71 0
8. 2. 2023 12:00 337.68 0
8. 2. 2023 11:00 337.67 110
8. 2. 2023 10:00 337.67 397
8. 2. 2023 09:00 337.77 504
8. 2. 2023 08:00 337.85 512
8. 2. 2023 07:00 337.93 168
8. 2. 2023 06:00 337.94 102
8. 2. 2023 05:00 337.94 83

H - water level, Q - outflow

VD Kořensko

Date and time (UTC) H (m n. m.) Q (m³/s)
8. 2. 2023 17:20 352.63 87.5
8. 2. 2023 17:00 352.62 87
8. 2. 2023 16:00 352.61 86
8. 2. 2023 15:00 352.60 84
8. 2. 2023 14:00 352.59 83
8. 2. 2023 13:00 352.58 83
8. 2. 2023 12:00 352.59 83
8. 2. 2023 11:00 352.58 82
8. 2. 2023 10:00 352.58 83
8. 2. 2023 09:00 352.59 83
8. 2. 2023 08:00 352.60 84
8. 2. 2023 07:00 352.62 86
8. 2. 2023 06:00 352.63 88
8. 2. 2023 05:00 352.65 75

H - water level, Q - outflow

České Budějovice

Date and time (UTC) H (cm) Q (m³/s)
8. 2. 2023 17:10 114 36.2
8. 2. 2023 17:00 114 36
8. 2. 2023 16:00 113 34
8. 2. 2023 15:00 113 34
8. 2. 2023 14:00 112 33
8. 2. 2023 13:00 113 34
8. 2. 2023 12:00 112 33
8. 2. 2023 11:00 112 32
8. 2. 2023 10:00 111 30
8. 2. 2023 09:00 112 33
8. 2. 2023 08:00 112 33
8. 2. 2023 07:00 113 35
8. 2. 2023 06:00 111 32
8. 2. 2023 05:00 112 32

H - water level, Q - discharge
more information


Morava

Strážnice

Date and time (UTC) H (cm) Q (m³/s)
8. 2. 2023 17:00 156 43.3
8. 2. 2023 16:00 154 42
8. 2. 2023 15:00 152 41
8. 2. 2023 14:00 151 41
8. 2. 2023 13:00 151 41
8. 2. 2023 12:00 151 41
8. 2. 2023 11:00 152 41
8. 2. 2023 10:00 152 41
8. 2. 2023 09:00 154 42
8. 2. 2023 08:00 156 43
8. 2. 2023 07:00 159 45
8. 2. 2023 06:00 160 45
8. 2. 2023 05:00 162 46

H - water level, Q - discharge
more information

Kroměříž

Date and time (UTC) H (cm) Q (m³/s)
8. 2. 2023 17:00 162 35.8
8. 2. 2023 16:00 162 36
8. 2. 2023 15:00 163 37
8. 2. 2023 14:00 163 37
8. 2. 2023 13:00 163 37
8. 2. 2023 12:00 161 35
8. 2. 2023 11:00 159 34
8. 2. 2023 10:00 158 33
8. 2. 2023 09:00 157 32
8. 2. 2023 08:00 157 32
8. 2. 2023 07:00 156 32
8. 2. 2023 06:00 156 32
8. 2. 2023 05:00 156 32

H - water level, Q - discharge
more information
Source data
Labe Basin Vltava Basin Povodí Moravy ČHMÚ